KC3JUG-3 Weather Reports


time (UTC)temp
F
wind
direction
speed
knots
gust
knots
rain 1hr
in
rain 24hr
in
rain mn
in
humidity
%
barometer
mb
20260505053545 60 189 3.5 7.0 0.00 0.00 0.00 66 1011.7
20260505053108 61 190 3.5 7.0 0.00 0.00 0.00 65 1011.6
20260505052545 61 195 2.6 6.1 0.00 0.00 0.00 65 1011.7
20260505052045 61 202 3.5 5.2 0.00 0.00 0.00 64 1011.6
20260505051549 61 195 3.5 7.0 0.00 0.00 0.00 64 1011.7
20260505051045 61 202 3.5 7.0 0.00 0.00 0.00 63 1011.7
20260505050544 61 191 3.5 7.0 0.00 0.00 0.00 63 1011.7
20260505041610 61 191 2.6 5.2 0.00 0.00 0.00 61 1011.8
20260505041045 61 190 2.6 6.1 0.00 0.00 0.00 60 1011.7
20260505040546 61 190 2.6 6.1 0.00 0.00 0.00 60 1011.7
20260505040057 61 197 2.6 6.1 0.00 0.00 0.00 60 1011.6
20260505035550 62 195 2.6 6.1 0.00 0.00 0.00 59 1011.6
20260505035054 62 181 2.6 6.1 0.00 0.00 0.00 59 1011.6
20260505034555 62 197 2.6 6.1 0.00 0.00 0.00 59 1011.5
20260505034052 62 187 1.7 4.3 0.00 0.00 0.00 59 1011.5
20260505033547 62 196 1.7 4.3 0.00 0.00 0.00 58 1011.4
20260505033049 62 190 1.7 5.2 0.00 0.00 0.00 58 1011.3
20260505032550 62 190 2.6 5.2 0.00 0.00 0.00 58 1011.5
20260505032046 62 190 1.7 4.3 0.00 0.00 0.00 58 1011.5
20260505031600 62 196 2.6 4.3 0.00 0.00 0.00 57 1011.5
20260505031054 62 197 2.6 5.2 0.00 0.00 0.00 57 1011.6
20260505030548 62 191 1.7 5.2 0.00 0.00 0.00 57 1011.6
20260505030054 62 186 2.6 5.2 0.00 0.00 0.00 57 1011.7
20260505025547 62 192 1.7 4.3 0.00 0.00 0.00 57 1011.7
20260505025051 62 192 1.7 3.5 0.00 0.00 0.00 57 1011.7
20260505024555 62 192 1.7 4.3 0.00 0.00 0.00 57 1011.7
20260505024048 62 192 1.7 4.3 0.00 0.00 0.00 57 1011.7
20260505023550 62 191 2.6 4.3 0.00 0.00 0.00 57 1011.6
20260505023055 62 191 1.7 4.3 0.00 0.00 0.00 57 1011.7
20260505022548 62 191 1.7 4.3 0.00 0.00 0.00 57 1011.7
20260505022049 62 191 1.7 3.5 0.00 0.00 0.00 56 1011.6
20260505021555 62 191 1.7 3.5 0.00 0.00 0.00 56 1011.8
20260505021046 63 191 2.6 3.5 0.00 0.00 0.00 56 1011.9
20260505020617 63 190 1.7 3.5 0.00 0.00 0.00 56 1011.9
20260505020055 63 190 1.7 3.5 0.00 0.00 0.00 55 1012.0
20260505015550 63 190 1.7 3.5 0.00 0.00 0.00 55 1012.1
20260505015048 63 190 0.9 3.5 0.00 0.00 0.00 55 1012.0
20260505014553 63 190 1.7 3.5 0.00 0.00 0.00 54 1012.0
20260505014048 63 190 0.9 3.5 0.00 0.00 0.00 54 1011.9
20260505013548 63 188 0.9 3.5 0.00 0.00 0.00 53 1011.9
20260505013100 63 188 1.7 3.5 0.00 0.00 0.00 53 1011.8
20260505012547 63 213 0.9 3.5 0.00 0.00 0.00 53 1011.8
20260505012048 63 213 0.9 3.5 0.00 0.00 0.00 53 1011.6
20260505011551 63 213 0.9 2.6 0.00 0.00 0.00 53 1011.7
20260505011050 63 0 1.7 2.6 0.00 0.00 0.00 53 1011.6
20260505010547 63 243 0.9 2.6 0.00 0.00 0.00 53 1011.5
20260505010054 63 246 0.9 2.6 0.00 0.00 0.00 53 1011.5
20260505005548 63 239 0.9 2.6 0.00 0.00 0.00 53 1011.5
20260505005048 63 240 0.9 3.5 0.00 0.00 0.00 52 1011.5
20260505004552 63 240 0.9 3.5 0.00 0.00 0.00 53 1011.5
20260505004047 63 218 0.9 2.6 0.00 0.00 0.00 53 1011.5
20260505003546 63 218 0.9 2.6 0.00 0.00 0.00 53 1011.5
20260505003055 63 214 0.9 2.6 0.00 0.00 0.00 53 1011.3
20260505002550 63 0 0.0 1.7 0.00 0.00 0.00 53 1011.3
20260505002049 64 263 0.0 1.7 0.00 0.00 0.00 53 1011.4
20260505001554 64 263 0.0 2.6 0.00 0.00 0.00 52 1011.2
20260505001048 64 0 0.9 2.6 0.00 0.00 0.00 52 1011.2
20260505000547 65 263 0.9 2.6 0.00 0.00 0.00 51 1011.2
20260504235547 65 251 0.9 3.5 0.00 0.00 0.00 51 1011.2
20260504235048 65 259 0.9 3.5 0.00 0.00 0.00 50 1011.1
20260504234557 66 197 1.7 3.5 0.00 0.00 0.00 49 1011.1
20260504234047 66 197 1.7 3.5 0.00 0.00 0.00 49 1011.1
20260504233547 66 195 1.7 3.5 0.00 0.00 0.00 49 1011.1
20260504233054 66 196 0.9 5.2 0.00 0.00 0.00 50 1011.0
20260504232548 67 226 0.9 5.2 0.00 0.00 0.00 49 1011.0
20260504232047 67 211 0.9 4.3 0.00 0.00 0.00 49 1011.1
20260504231602 67 196 0.9 4.3 0.00 0.00 0.00 48 1011.1
20260504231047 67 196 1.7 4.3 0.00 0.00 0.00 47 1011.1
20260504230547 68 183 0.9 4.3 0.00 0.00 0.00 47 1011.1
20260504230150 68 243 0.9 3.5 0.00 0.00 0.00 47 1011.1
20260504230057 68 243 0.9 3.5 0.00 0.00 0.00 47 1011.1
20260504225548 68 244 1.7 2.6 0.00 0.00 0.00 46 1011.0
20260504225047 68 222 0.9 4.3 0.00 0.00 0.00 47 1011.0
20260504224555 68 214 0.9 6.1 0.00 0.00 0.00 46 1011.1
20260504224048 68 215 0.9 6.1 0.00 0.00 0.00 46 1011.1
20260504223548 68 193 1.7 6.1 0.00 0.00 0.00 45 1011.1
20260504223053 69 200 1.7 6.1 0.00 0.00 0.00 45 1011.1
20260504222548 69 195 1.7 6.1 0.00 0.00 0.00 45 1011.1
20260504222047 69 190 1.7 9.6 0.00 0.00 0.00 44 1011.1
20260504221558 69 248 3.5 9.6 0.00 0.00 0.00 45 1011.1
20260504221047 69 192 2.6 6.1 0.00 0.00 0.00 44 1011.2
20260504220548 69 163 1.7 6.1 0.00 0.00 0.00 44 1011.2
20260504220056 69 203 1.7 6.1 0.00 0.00 0.00 44 1011.3
20260504215548 69 229 0.9 7.0 0.00 0.00 0.00 44 1011.2
20260504215046 69 190 1.7 7.0 0.00 0.00 0.00 45 1011.3
20260504214554 69 256 3.5 7.0 0.00 0.00 0.00 45 1011.2
20260504214048 69 178 1.7 7.0 0.00 0.00 0.00 43 1011.2
20260504213547 70 254 2.6 7.0 0.00 0.00 0.00 43 1011.3
20260504213050 70 207 0.0 7.0 0.00 0.00 0.00 44 1011.2
20260504212549 70 0 0.0 6.1 0.00 0.00 0.00 43 1011.2
20260504212047 70 208 0.0 3.5 0.00 0.00 0.00 44 1011.3
20260504211553 70 0 0.0 6.1 0.00 0.00 0.00 43 1011.2
20260504211049 70 0 1.7 6.1 0.00 0.00 0.00 44 1011.2
20260504210547 70 255 0.0 1.7 0.00 0.00 0.00 45 1011.2
20260504205046 70 261 2.6 6.1 0.00 0.00 0.00 44 1011.2
20260504204601 70 194 2.6 5.2 0.00 0.00 0.00 43 1011.2
20260504204048 70 198 1.7 10.4 0.00 0.00 0.00 43 1011.3
20260504203548 70 241 2.6 10.4 0.00 0.00 0.00 44 1011.3
20260504203050 70 244 3.5 8.7 0.00 0.00 0.00 44 1011.3
20260504202548 71 244 2.6 7.0 0.00 0.00 0.00 43 1011.4
20260504202048 71 197 3.5 8.7 0.00 0.00 0.00 45 1011.4
20260504201550 71 197 3.5 8.7 0.00 0.00 0.00 46 1011.5
20260504201048 71 257 3.5 8.7 0.00 0.00 0.00 45 1011.5
20260504200546 71 255 2.6 7.0 0.00 0.00 0.00 42 1011.5
20260504200051 71 213 2.6 10.4 0.00 0.00 0.00 41 1011.6
20260504195545 70 257 3.5 13.9 0.00 0.00 0.00 44 1011.6
20260504195047 70 209 4.3 13.9 0.00 0.00 0.00 41 1011.7
20260504194605 70 261 3.5 10.4 0.00 0.00 0.00 41 1011.7
20260504194047 70 255 5.2 10.4 0.00 0.00 0.00 42 1011.8
20260504193547 71 201 3.5 7.8 0.00 0.00 0.00 40 1011.7
20260504193052 71 264 1.7 9.6 0.00 0.00 0.00 45 1011.8
20260504192548 70 205 4.3 10.4 0.00 0.00 0.00 41 1011.9
20260504192048 70 197 4.3 10.4 0.00 0.00 0.00 41 1012.0
20260504191552 70 254 3.5 9.6 0.00 0.00 0.00 43 1012.0
20260504191048 70 266 4.3 10.4 0.00 0.00 0.00 44 1012.2
20260504190547 70 244 2.6 10.4 0.00 0.00 0.00 44 1012.3
20260504190117 69 205 4.3 11.3 0.00 0.00 0.00 42 1012.4
20260504185546 69 276 3.5 11.3 0.00 0.00 0.00 44 1012.2
20260504185045 69 239 4.3 11.3 0.00 0.00 0.00 42 1012.4
20260504184557 69 261 2.6 7.0 0.00 0.00 0.00 42 1012.3
20260504184047 69 225 2.6 7.0 0.00 0.00 0.00 42 1012.4
20260504183547 69 156 1.7 7.8 0.00 0.00 0.00 42 1012.5
20260504183054 69 226 2.6 7.8 0.00 0.00 0.00 46 1012.5
20260504182546 69 262 3.5 7.8 0.00 0.00 0.00 44 1012.6
20260504182047 69 234 0.9 7.8 0.00 0.00 0.00 46 1012.6
20260504181603 69 169 1.7 6.1 0.00 0.00 0.00 44 1012.8
20260504181047 68 252 2.6 7.8 0.00 0.00 0.00 44 1012.8
20260504180547 68 261 1.7 9.6 0.00 0.00 0.00 45 1012.8
20260504180208 67 283 1.7 9.6 0.00 0.00 0.00 45 1013.0
20260504175547 67 256 2.6 11.3 0.00 0.00 0.00 45 1013.1
20260504175052 67 240 3.5 11.3 0.00 0.00 0.00 44 1013.3
20260504174555 67 206 2.6 9.6 0.00 0.00 0.00 45 1013.2
20260504174049 67 211 2.6 9.6 0.00 0.00 0.00 47 1013.2
20260504173545 67 246 2.6 7.8 0.00 0.00 0.00 45 1013.3
20260504173059 66 222 3.5 7.8 0.00 0.00 0.00 45 1013.4
20260504172545 66 257 1.7 7.0 0.00 0.00 0.00 43 1013.5
20260504172045 66 296 2.6 9.6 0.00 0.00 0.00 45 1013.5
20260504171558 66 288 2.6 9.6 0.00 0.00 0.00 46 1013.7
20260504171045 66 273 2.6 8.7 0.00 0.00 0.00 45 1013.9
20260504170545 65 237 2.6 8.7 0.00 0.00 0.00 44 1013.7
20260504151048 61 196 3.5 10.4 0.00 0.00 0.00 44 1015.2
20260504150548 61 251 3.5 6.1 0.00 0.00 0.00 45 1015.2
20260504141047 58 251 1.7 6.1 0.00 0.00 0.00 54 1015.3
20260504140547 58 194 1.7 4.3 0.00 0.00 0.00 54 1015.3
20260504140112 57 207 1.7 7.0 0.00 0.00 0.00 54 1015.2
20260504130546 55 200 1.7 5.2 0.00 0.00 0.00 60 1015.5
20260504120112 51 192 2.6 7.0 0.00 0.00 0.00 62 1015.4
20260504110545 48 200 2.6 5.2 0.00 0.00 0.00 58 1015.7
20260504100549 50 194 2.6 4.3 0.00 0.00 0.00 50 1015.6
20260504081553 51 236 0.9 4.3 0.00 0.00 0.00 48 1015.8
20260504081047 51 234 1.7 4.3 0.00 0.00 0.00 48 1015.9
20260504080547 51 223 1.7 4.3 0.00 0.00 0.00 48 1015.9